Location: Zagreb
(45.8000°N, 16.0000°E)
Time: 13:47:35
(UTC+02:00)

Tiros 1 despin weight - Pass Details

Date: 17 August 2022
Orbit: 590 x 639 km, 48.2° (Epoch: 23 September)

Event Time Altitude Azimuth Distance (km) Brightness Sun altitude
Rises 16:20:59 0° 289° (WNW) 2,839 ? 36.8°
Reaches altitude 10° 16:23:21 10° 283° (WNW) 1,929 ? 36.4°
Maximum altitude 16:27:34 45° 211° (SSW) 806 ? 35.7°
Drops below altitude 10° 16:31:44 10° 138° (SE) 1,910 ? 35.0°
Sets 16:34:04 0° 132° (SE) 2,808 ? 34.6°
